GFSSE_prec_precacc24_111.txt.gz
Total_Precipitation_Accumulation
0.00 0.00 0.00 0.00 0.00 0.00 0.00 0.00 0.00 0.00 0.00 0.00 0.00 0.00 0.00 0.00 0.00 0.00 0.01 0.01 0.00 0.01 0.01 0.00 0.01 0.00 0.02 0.03 0.05 0.12 0.05 0.02 0.02 0.04 0.10 0.08 0.05 0.05 0.04 0.06 0.07 0.03 0.08
0.00 0.00 0.00 0.00 0.00 0.00 0.00 0.00 0.00 0.00 0.00 0.00 0.00 0.00 0.00 0.00 0.00 0.00 0.02 0.07 0.03 0.01 0.01 0.01 0.01 0.02 0.05 0.03 0.04 0.04 0.01 0.01 0.01 0.02 0.09 0.13 0.08 0.05 0.03 0.06 0.04 0.03 0.05
0.00 0.00 0.00 0.00 0.00 0.00 0.00 0.01 0.00 0.00 0.00 0.00 0.00 0.00 0.00 0.00 0.00 0.00 0.00 0.02 0.05 0.02 0.02 0.02 0.02 0.03 0.03 0.03 0.05 0.05 0.00 0.00 0.01 0.03 0.06 0.04 0.08 0.08 0.04 0.03 0.03 0.03 0.03
0.00 0.00 0.00 0.00 0.00 0.00 0.02 0.05 0.03 0.00 0.02 0.01 0.00 0.01 0.02 0.01 0.00 0.00 0.01 0.04 0.06 0.04 0.04 0.03 0.05 0.07 0.09 0.08 0.08 0.02 0.00 0.00 0.00 0.02 0.02 0.01 0.06 0.07 0.04 0.02 0.03 0.02 0.02
0.00 0.00 0.00 0.00 0.00 0.00 0.02 0.05 0.09 0.12 0.30 0.36 0.28 0.31 0.29 0.21 0.11 0.05 0.07 0.09 0.10 0.14 0.12 0.06 0.11 0.09 0.04 0.03 0.08 0.10 0.00 0.00 0.00 0.00 0.00 0.01 0.03 0.08 0.04 0.03 0.03 0.04 0.06
0.00 0.00 0.00 0.00 0.00 0.00 0.01 0.02 0.02 0.07 0.31 1.40 2.56 2.01 1.11 0.74 0.40 0.36 0.28 0.24 0.24 0.25 0.25 0.23 0.21 0.16 0.02 0.00 0.00 0.01 0.00 0.00 0.00 0.00 0.00 0.01 0.03 0.06 0.04 0.03 0.03 0.04 0.05
0.00 0.00 0.00 0.00 0.00 0.00 0.01 0.00 0.01 0.03 0.15 1.33 3.28 3.04 2.08 1.56 1.56 1.14 0.68 0.50 0.45 0.34 0.23 0.22 0.18 0.16 0.02 0.00 0.00 0.00 0.00 0.00 0.00 0.00 0.00 0.03 0.06 0.04 0.03 0.02 0.01 0.02 0.02
0.00 0.00 0.00 0.00 0.00 0.00 0.01 0.02 0.04 0.03 0.09 0.18 0.64 1.08 1.60 1.68 1.40 1.56 1.43 0.85 0.55 0.35 0.30 0.22 0.09 0.06 0.03 0.00 0.00 0.01 0.00 0.00 0.00 0.01 0.00 0.05 0.04 0.04 0.03 0.01 0.01 0.01 0.01
0.00 0.00 0.00 0.00 0.01 0.00 0.00 0.01 0.03 0.04 0.08 0.09 0.10 0.32 0.62 1.38 1.22 1.05 1.32 1.41 0.59 0.25 0.37 0.33 0.23 0.40 0.14 0.12 0.09 0.02 0.00 0.01 0.01 0.00 0.01 0.04 0.04 0.03 0.02 0.01 0.01 0.01 0.02
0.00 0.00 0.00 0.00 0.01 0.01 0.01 0.01 0.03 0.06 0.11 0.15 0.10 0.13 0.30 0.80 1.09 1.19 1.20 1.39 1.12 0.41 0.36 0.37 0.50 0.42 0.43 0.27 0.15 0.07 0.02 0.03 0.01 0.00 0.01 0.02 0.03 0.02 0.02 0.01 0.01 0.02 0.02
0.00 0.00 0.00 0.00 0.02 0.02 0.04 0.05 0.03 0.05 0.07 0.09 0.13 0.16 0.36 1.08 0.79 1.14 1.40 1.14 0.80 0.44 0.38 0.39 0.40 0.55 0.54 0.58 0.51 0.33 0.19 0.01 0.02 0.01 0.01 0.01 0.02 0.02 0.02 0.02 0.02 0.02 0.02
0.00 0.00 0.00 0.00 0.02 0.04 0.04 0.07 0.05 0.07 0.09 0.14 0.25 0.27 0.46 1.51 0.91 1.07 1.54 0.99 0.79 0.56 0.46 0.42 0.40 0.41 0.41 0.39 0.47 0.42 0.20 0.09 0.02 0.02 0.01 0.01 0.02 0.01 0.02 0.02 0.02 0.01 0.01
0.00 0.00 0.00 0.00 0.00 0.03 0.06 0.05 0.08 0.13 0.13 0.12 0.13 0.27 0.33 0.87 1.12 1.36 1.83 1.18 0.70 0.54 0.48 0.46 0.23 0.19 0.14 0.20 0.31 0.35 0.39 0.24 0.16 0.01 0.00 0.01 0.02 0.02 0.03 0.02 0.02 0.02 0.02
0.00 0.00 0.00 0.00 0.00 0.00 0.02 0.05 0.08 0.14 0.16 0.10 0.12 0.14 0.22 0.58 0.82 1.28 1.44 1.08 0.52 0.38 0.28 0.27 0.13 0.08 0.06 0.12 0.19 0.19 0.37 0.55 0.28 0.02 0.00 0.01 0.03 0.03 0.02 0.02 0.02 0.02 0.02
0.00 0.00 0.00 0.00 0.00 0.00 0.01 0.02 0.04 0.14 0.19 0.10 0.07 0.24 0.20 0.36 0.58 1.04 0.94 1.16 0.65 0.44 0.27 0.24 0.17 0.11 0.06 0.05 0.07 0.11 0.12 0.15 0.13 0.01 0.00 0.01 0.03 0.04 0.02 0.03 0.03 0.02 0.02
0.00 0.00 0.00 0.00 0.00 0.00 0.00 0.00 0.02 0.05 0.18 0.12 0.10 0.15 0.32 0.33 0.51 0.79 0.81 0.85 0.91 0.87 0.33 0.25 0.22 0.13 0.10 0.08 0.11 0.13 0.10 0.03 0.02 0.00 0.00 0.01 0.03 0.03 0.03 0.03 0.03 0.02 0.02
0.00 0.00 0.00 0.00 0.00 0.00 0.00 0.00 0.00 0.05 0.07 0.10 0.12 0.12 0.15 0.24 0.36 0.50 0.61 0.72 0.66 1.06 0.61 0.36 0.37 0.34 0.24 0.15 0.12 0.10 0.09 0.03 0.00 0.00 0.00 0.00 0.02 0.03 0.03 0.03 0.02 0.02 0.02
0.00 0.00 0.00 0.00 0.00 0.00 0.00 0.00 0.00 0.01 0.03 0.06 0.08 0.14 0.17 0.20 0.27 0.27 0.57 0.53 0.69 0.65 0.48 0.37 0.44 0.42 0.42 0.21 0.10 0.05 0.03 0.01 0.00 0.00 0.00 0.00 0.01 0.01 0.01 0.02 0.02 0.02 0.02
0.00 0.00 0.00 0.00 0.00 0.00 0.01 0.00 0.00 0.00 0.03 0.08 0.09 0.13 0.22 0.22 0.38 0.32 0.42 0.60 0.63 0.58 0.40 0.40 0.38 0.47 0.42 0.36 0.16 0.08 0.04 0.02 0.00 0.00 0.00 0.00 0.00 0.00 0.00 0.01 0.01 0.01 0.01
0.00 0.00 0.00 0.00 0.00 0.01 0.01 0.00 0.00 0.01 0.05 0.15 0.17 0.15 0.23 0.29 0.27 0.38 0.40 0.53 0.77 0.82 0.46 0.42 0.53 0.56 0.49 0.38 0.20 0.11 0.07 0.04 0.00 0.00 0.00 0.00 0.00 0.00 0.00 0.00 0.00 0.00 0.00
0.00 0.00 0.00 0.00 0.00 0.00 0.01 0.01 0.01 0.01 0.03 0.10 0.26 0.26 0.28 0.39 0.30 0.25 0.36 0.39 0.58 0.62 0.47 0.30 0.45 0.59 0.60 0.47 0.29 0.17 0.12 0.07 0.02 0.00 0.00 0.00 0.00 0.00 0.00 0.00 0.00 0.00 0.00
0.00 0.00 0.00 0.00 0.00 0.01 0.01 0.01 0.00 0.01 0.01 0.05 0.16 0.35 0.34 0.48 0.45 0.29 0.34 0.33 0.40 0.47 0.49 0.36 0.32 0.42 0.44 0.37 0.22 0.12 0.11 0.06 0.05 0.01 0.00 0.00 0.00 0.00 0.00 0.00 0.00 0.00 0.00
0.00 0.00 0.00 0.00 0.00 0.02 0.01 0.01 0.02 0.02 0.02 0.04 0.09 0.20 0.37 0.46 0.53 0.51 0.42 0.32 0.23 0.19 0.27 0.37 0.36 0.25 0.23 0.23 0.14 0.06 0.10 0.09 0.06 0.04 0.01 0.00 0.00 0.00 0.00 0.00 0.00 0.00 0.00
0.00 0.00 0.00 0.00 0.01 0.02 0.01 0.00 0.01 0.00 0.01 0.02 0.02 0.06 0.17 0.44 0.63 0.40 0.54 0.53 0.44 0.23 0.22 0.29 0.39 0.35 0.26 0.24 0.13 0.10 0.05 0.07 0.08 0.07 0.03 0.00 0.00 0.00 0.00 0.00 0.00 0.00 0.00
0.00 0.00 0.00 0.00 0.01 0.01 0.01 0.00 0.00 0.00 0.00 0.01 0.00 0.02 0.09 0.25 0.53 0.63 0.30 0.47 0.44 0.23 0.14 0.18 0.31 0.41 0.34 0.29 0.18 0.12 0.07 0.06 0.04 0.01 0.01 0.00 0.00 0.00 0.00 0.00 0.00 0.00 0.00
0.00 0.00 0.00 0.01 0.01 0.01 0.02 0.01 0.00 0.01 0.01 0.00 0.00 0.00 0.02 0.10 0.29 0.45 0.60 0.44 0.43 0.31 0.15 0.07 0.17 0.19 0.30 0.30 0.23 0.18 0.09 0.04 0.04 0.02 0.00 0.00 0.02 0.01 0.01 0.00 0.00 0.00 0.00

GFSSE_prec_precacc24_114.txt.gz
Total_Precipitation_Accumulation
0.00 0.00 0.00 0.00 0.00 0.00 0.00 0.00 0.00 0.00 0.00 0.00 0.00 0.00 0.00 0.00 0.00 0.00 0.01 0.01 0.00 0.01 0.01 0.01 0.00 0.00 0.03 0.04 0.09 0.14 0.06 0.03 0.02 0.04 0.09 0.07 0.04 0.04 0.04 0.07 0.08 0.03 0.08
0.00 0.00 0.00 0.00 0.00 0.00 0.00 0.00 0.00 0.00 0.00 0.00 0.00 0.00 0.00 0.00 0.00 0.00 0.02 0.07 0.03 0.01 0.02 0.01 0.01 0.02 0.05 0.03 0.05 0.05 0.01 0.01 0.01 0.02 0.09 0.13 0.07 0.05 0.04 0.09 0.05 0.04 0.06
0.00 0.00 0.00 0.00 0.00 0.00 0.00 0.00 0.00 0.00 0.00 0.00 0.00 0.00 0.00 0.00 0.00 0.00 0.00 0.02 0.05 0.03 0.02 0.02 0.02 0.03 0.04 0.04 0.07 0.06 0.00 0.00 0.01 0.04 0.11 0.04 0.08 0.11 0.05 0.05 0.02 0.04 0.03
0.00 0.00 0.00 0.00 0.00 0.00 0.00 0.00 0.00 0.00 0.00 0.00 0.00 0.01 0.02 0.00 0.00 0.00 0.00 0.04 0.05 0.04 0.03 0.03 0.05 0.08 0.09 0.08 0.09 0.04 0.00 0.00 0.00 0.02 0.04 0.01 0.07 0.13 0.08 0.02 0.03 0.03 0.02
0.00 0.00 0.00 0.00 0.00 0.00 0.00 0.00 0.00 0.00 0.02 0.11 0.23 0.30 0.27 0.19 0.11 0.05 0.07 0.08 0.09 0.14 0.12 0.07 0.14 0.15 0.06 0.03 0.08 0.10 0.00 0.00 0.00 0.01 0.00 0.01 0.04 0.11 0.05 0.04 0.05 0.08 0.11
0.00 0.00 0.00 0.00 0.00 0.00 0.00 0.00 0.01 0.00 0.01 0.14 0.81 1.19 0.87 0.68 0.37 0.34 0.25 0.22 0.24 0.27 0.33 0.30 0.40 0.35 0.03 0.00 0.00 0.01 0.00 0.00 0.01 0.06 0.02 0.03 0.07 0.07 0.07 0.06 0.06 0.05 0.06
0.00 0.00 0.00 0.00 0.00 0.00 0.00 0.00 0.01 0.02 0.07 0.26 0.58 0.90 1.02 1.26 1.27 0.94 0.65 0.49 0.49 0.42 0.32 0.32 0.21 0.18 0.02 0.00 0.00 0.00 0.00 0.00 0.04 0.09 0.03 0.04 0.11 0.05 0.06 0.03 0.02 0.04 0.03
0.00 0.00 0.00 0.00 0.00 0.00 0.00 0.01 0.01 0.02 0.05 0.13 0.28 0.44 0.69 1.22 1.00 1.14 1.25 0.82 0.57 0.37 0.32 0.26 0.10 0.07 0.05 0.01 0.00 0.02 0.00 0.00 0.03 0.24 0.08 0.06 0.07 0.05 0.05 0.02 0.02 0.01 0.01
0.00 0.00 0.00 0.00 0.01 0.00 0.00 0.01 0.03 0.04 0.03 0.06 0.07 0.21 0.47 1.18 1.03 0.81 1.12 1.49 0.70 0.30 0.49 0.42 0.30 0.54 0.21 0.20 0.17 0.10 0.02 0.05 0.11 0.08 0.01 0.05 0.06 0.04 0.03 0.01 0.01 0.01 0.01
0.00 0.00 0.00 0.00 0.00 0.00 0.01 0.01 0.03 0.05 0.05 0.05 0.03 0.06 0.20 0.49 0.77 0.91 1.04 1.38 1.18 0.48 0.41 0.39 0.59 0.48 0.56 0.35 0.18 0.13 0.06 0.08 0.07 0.09 0.02 0.02 0.04 0.02 0.02 0.01 0.01 0.01 0.01
0.00 0.00 0.00 0.00 0.01 0.01 0.01 0.02 0.03 0.05 0.06 0.04 0.03 0.03 0.17 0.29 0.43 0.82 1.26 1.09 0.82 0.47 0.43 0.46 0.44 0.56 0.56 0.60 0.55 0.40 0.28 0.03 0.13 0.07 0.04 0.03 0.04 0.02 0.02 0.02 0.02 0.01 0.01
0.00 0.00 0.00 0.00 0.01 0.02 0.01 0.01 0.03 0.04 0.04 0.05 0.03 0.10 0.16 0.21 0.31 0.73 1.41 0.94 0.80 0.57 0.47 0.46 0.40 0.44 0.47 0.41 0.50 0.47 0.23 0.16 0.26 0.44 0.13 0.04 0.05 0.02 0.02 0.02 0.02 0.01 0.01
0.00 0.00 0.00 0.00 0.00 0.01 0.02 0.00 0.01 0.03 0.04 0.04 0.05 0.13 0.17 0.25 0.43 0.92 1.76 1.17 0.75 0.56 0.48 0.46 0.23 0.19 0.15 0.20 0.31 0.35 0.39 0.27 0.37 0.30 0.13 0.03 0.04 0.03 0.03 0.02 0.02 0.02 0.02
0.00 0.00 0.00 0.00 0.00 0.00 0.01 0.01 0.02 0.05 0.05 0.03 0.06 0.07 0.14 0.20 0.37 0.85 1.36 1.08 0.54 0.40 0.29 0.29 0.13 0.08 0.06 0.13 0.19 0.20 0.37 0.63 0.64 0.85 0.21 0.04 0.04 0.04 0.03 0.02 0.03 0.02 0.02
0.00 0.00 0.00 0.00 0.00 0.00 0.00 0.01 0.03 0.04 0.07 0.03 0.04 0.14 0.09 0.13 0.32 0.78 0.78 1.17 0.66 0.45 0.28 0.27 0.19 0.13 0.07 0.07 0.09 0.12 0.13 0.20 0.61 0.64 0.38 0.05 0.04 0.04 0.02 0.03 0.04 0.02 0.03
0.00 0.00 0.00 0.00 0.00 0.00 0.00 0.00 0.01 0.02 0.08 0.07 0.07 0.11 0.16 0.15 0.35 0.64 0.68 0.85 0.93 0.92 0.38 0.28 0.25 0.15 0.12 0.09 0.12 0.14 0.11 0.05 0.09 0.17 0.19 0.04 0.03 0.03 0.03 0.03 0.04 0.02 0.03
0.00 0.00 0.00 0.00 0.00 0.00 0.00 0.00 0.00 0.01 0.03 0.08 0.11 0.10 0.12 0.16 0.22 0.41 0.58 0.73 0.69 1.13 0.66 0.41 0.44 0.42 0.30 0.15 0.13 0.14 0.14 0.08 0.06 0.05 0.06 0.02 0.02 0.03 0.03 0.04 0.03 0.03 0.03
0.00 0.00 0.00 0.00 0.00 0.00 0.00 0.00 0.00 0.01 0.02 0.05 0.07 0.11 0.13 0.18 0.21 0.22 0.54 0.50 0.67 0.70 0.53 0.43 0.49 0.46 0.46 0.22 0.15 0.12 0.06 0.06 0.15 0.08 0.02 0.00 0.01 0.02 0.02 0.03 0.02 0.03 0.02
0.00 0.00 0.00 0.00 0.00 0.00 0.00 0.00 0.00 0.00 0.02 0.05 0.08 0.10 0.10 0.15 0.33 0.30 0.39 0.57 0.60 0.59 0.43 0.44 0.41 0.51 0.46 0.38 0.25 0.16 0.10 0.06 0.04 0.02 0.01 0.00 0.00 0.01 0.01 0.02 0.02 0.02 0.01
0.00 0.00 0.00 0.00 0.00 0.00 0.00 0.00 0.00 0.00 0.02 0.06 0.10 0.10 0.14 0.20 0.22 0.36 0.37 0.51 0.76 0.83 0.46 0.43 0.54 0.57 0.54 0.49 0.35 0.31 0.20 0.10 0.04 0.01 0.00 0.00 0.00 0.01 0.01 0.01 0.01 0.01 0.00
0.00 0.00 0.00 0.00 0.00 0.00 0.00 0.01 0.00 0.01 0.02 0.05 0.14 0.16 0.22 0.31 0.28 0.24 0.34 0.36 0.57 0.62 0.47 0.30 0.45 0.61 0.63 0.52 0.44 0.43 0.32 0.19 0.07 0.02 0.01 0.00 0.01 0.00 0.01 0.01 0.00 0.00 0.00
0.00 0.00 0.00 0.00 0.00 0.00 0.00 0.00 0.00 0.00 0.01 0.04 0.11 0.25 0.25 0.44 0.42 0.27 0.33 0.32 0.40 0.47 0.49 0.36 0.33 0.46 0.48 0.44 0.37 0.35 0.35 0.24 0.13 0.04 0.01 0.00 0.00 0.00 0.01 0.01 0.00 0.00 0.00
0.00 0.00 0.00 0.00 0.00 0.00 0.00 0.00 0.01 0.01 0.02 0.04 0.08 0.19 0.33 0.43 0.51 0.50 0.41 0.33 0.23 0.19 0.27 0.37 0.36 0.26 0.23 0.31 0.28 0.20 0.19 0.12 0.07 0.05 0.02 0.01 0.00 0.00 0.00 0.00 0.00 0.00 0.00
0.00 0.00 0.00 0.00 0.00 0.01 0.00 0.00 0.00 0.00 0.00 0.01 0.01 0.06 0.17 0.44 0.63 0.40 0.54 0.53 0.44 0.23 0.22 0.29 0.39 0.35 0.26 0.28 0.23 0.15 0.07 0.09 0.08 0.07 0.05 0.02 0.01 0.00 0.00 0.00 0.00 0.00 0.00
0.00 0.00 0.00 0.00 0.00 0.00 0.00 0.00 0.00 0.00 0.00 0.01 0.01 0.03 0.09 0.25 0.53 0.63 0.30 0.46 0.43 0.23 0.14 0.18 0.30 0.39 0.32 0.28 0.24 0.21 0.14 0.10 0.08 0.06 0.06 0.04 0.03 0.00 0.00 0.00 0.00 0.00 0.00
0.00 0.00 0.00 0.00 0.01 0.01 0.01 0.00 0.00 0.00 0.00 0.00 0.00 0.00 0.02 0.11 0.29 0.46 0.61 0.44 0.39 0.29 0.11 0.06 0.13 0.18 0.26 0.30 0.27 0.27 0.17 0.10 0.07 0.05 0.03 0.03 0.03 0.01 0.01 0.00 0.00 0.00 0.00

GFSSE_prec_precacc24_117.txt.gz
Total_Precipitation_Accumulation
0.00 0.00 0.00 0.00 0.00 0.00 0.00 0.00 0.00 0.00 0.00 0.00 0.00 0.00 0.00 0.00 0.00 0.00 0.01 0.01 0.00 0.01 0.01 0.01 0.00 0.02 0.05 0.06 0.11 0.18 0.08 0.07 0.08 0.06 0.12 0.08 0.04 0.03 0.04 0.08 0.08 0.02 0.07
0.00 0.00 0.00 0.00 0.00 0.00 0.00 0.00 0.00 0.00 0.00 0.00 0.00 0.00 0.00 0.00 0.00 0.00 0.02 0.07 0.03 0.01 0.02 0.01 0.01 0.03 0.07 0.05 0.06 0.06 0.01 0.01 0.02 0.04 0.11 0.13 0.06 0.04 0.04 0.10 0.04 0.03 0.06
0.00 0.00 0.00 0.00 0.00 0.00 0.00 0.00 0.00 0.00 0.00 0.00 0.00 0.00 0.00 0.00 0.00 0.00 0.00 0.02 0.05 0.03 0.02 0.02 0.02 0.03 0.04 0.05 0.08 0.07 0.00 0.01 0.02 0.05 0.11 0.04 0.08 0.15 0.06 0.04 0.02 0.03 0.03
0.00 0.00 0.00 0.00 0.00 0.00 0.00 0.00 0.00 0.00 0.00 0.00 0.00 0.00 0.01 0.00 0.00 0.00 0.00 0.04 0.05 0.03 0.03 0.03 0.05 0.08 0.10 0.09 0.09 0.04 0.00 0.00 0.00 0.02 0.05 0.02 0.07 0.21 0.09 0.02 0.03 0.04 0.03
0.00 0.00 0.00 0.00 0.00 0.00 0.00 0.00 0.00 0.00 0.00 0.01 0.01 0.02 0.03 0.07 0.10 0.05 0.07 0.08 0.09 0.13 0.12 0.07 0.14 0.15 0.06 0.03 0.08 0.10 0.00 0.00 0.01 0.02 0.01 0.01 0.04 0.16 0.09 0.07 0.08 0.10 0.12
0.00 0.00 0.00 0.00 0.00 0.00 0.00 0.00 0.00 0.00 0.01 0.02 0.05 0.24 0.13 0.08 0.18 0.32 0.25 0.22 0.24 0.30 0.35 0.33 0.41 0.35 0.03 0.00 0.00 0.01 0.00 0.02 0.09 0.13 0.14 0.05 0.14 0.13 0.09 0.09 0.09 0.08 0.08
0.00 0.00 0.00 0.00 0.00 0.00 0.00 0.00 0.00 0.01 0.01 0.15 0.24 0.35 0.12 0.15 0.57 0.70 0.49 0.48 0.51 0.50 0.38 0.39 0.23 0.18 0.02 0.00 0.00 0.01 0.00 0.03 0.15 0.18 0.17 0.08 0.12 0.06 0.05 0.03 0.04 0.05 0.04
0.00 0.00 0.00 0.00 0.00 0.00 0.00 0.01 0.01 0.02 0.01 0.09 0.17 0.26 0.15 0.16 0.38 0.56 0.82 0.71 0.57 0.41 0.39 0.28 0.12 0.08 0.05 0.02 0.01 0.05 0.01 0.02 0.13 0.47 0.63 0.21 0.12 0.05 0.05 0.02 0.02 0.01 0.01
0.00 0.00 0.00 0.00 0.00 0.00 0.00 0.01 0.03 0.04 0.01 0.03 0.04 0.18 0.30 0.53 0.44 0.35 0.59 1.35 0.74 0.41 0.61 0.47 0.32 0.54 0.21 0.22 0.18 0.11 0.02 0.06 0.14 0.27 0.66 0.17 0.10 0.04 0.03 0.01 0.01 0.00 0.01
0.00 0.00 0.00 0.00 0.00 0.00 0.01 0.01 0.03 0.05 0.05 0.04 0.03 0.06 0.17 0.31 0.27 0.49 0.75 1.21 1.17 0.56 0.47 0.44 0.59 0.48 0.57 0.38 0.18 0.13 0.06 0.08 0.08 0.46 0.40 0.17 0.10 0.04 0.04 0.02 0.01 0.01 0.01
0.00 0.00 0.00 0.00 0.00 0.00 0.00 0.02 0.03 0.05 0.06 0.04 0.02 0.02 0.16 0.23 0.21 0.43 0.84 0.78 0.72 0.51 0.46 0.48 0.44 0.56 0.56 0.62 0.55 0.40 0.28 0.03 0.15 0.22 0.27 0.16 0.16 0.05 0.05 0.04 0.02 0.01 0.01
0.00 0.00 0.00 0.00 0.00 0.00 0.00 0.01 0.03 0.04 0.04 0.05 0.03 0.02 0.05 0.07 0.15 0.28 0.68 0.69 0.69 0.57 0.48 0.46 0.40 0.44 0.47 0.41 0.50 0.47 0.23 0.16 0.27 0.51 0.25 0.14 0.15 0.03 0.04 0.03 0.02 0.01 0.01
0.00 0.00 0.00 0.00 0.00 0.00 0.00 0.00 0.01 0.03 0.04 0.04 0.05 0.04 0.06 0.16 0.19 0.38 1.25 1.05 0.73 0.56 0.48 0.46 0.24 0.19 0.15 0.20 0.31 0.35 0.39 0.28 0.42 0.45 0.36 0.13 0.12 0.03 0.03 0.03 0.02 0.02 0.02
0.00 0.00 0.00 0.00 0.00 0.00 0.00 0.00 0.01 0.03 0.04 0.02 0.04 0.05 0.08 0.16 0.19 0.32 1.16 1.06 0.54 0.40 0.29 0.29 0.15 0.09 0.06 0.13 0.19 0.20 0.37 0.63 0.66 0.90 0.34 0.21 0.18 0.09 0.04 0.03 0.03 0.03 0.03
0.00 0.00 0.00 0.00 0.00 0.00 0.00 0.01 0.01 0.01 0.03 0.03 0.02 0.08 0.07 0.08 0.17 0.54 0.71 1.15 0.66 0.45 0.28 0.27 0.19 0.13 0.07 0.07 0.11 0.12 0.13 0.20 0.61 0.65 0.47 0.24 0.23 0.15 0.03 0.03 0.05 0.03 0.03
0.00 0.00 0.00 0.00 0.00 0.00 0.00 0.00 0.01 0.01 0.02 0.03 0.02 0.08 0.15 0.11 0.19 0.48 0.60 0.84 0.93 0.92 0.38 0.28 0.25 0.15 0.12 0.09 0.16 0.15 0.15 0.08 0.09 0.18 0.30 0.16 0.24 0.15 0.05 0.04 0.05 0.03 0.03
0.00 0.00 0.00 0.00 0.00 0.00 0.00 0.00 0.00 0.01 0.02 0.02 0.02 0.05 0.10 0.10 0.10 0.31 0.53 0.73 0.69 1.13 0.66 0.42 0.44 0.44 0.31 0.16 0.16 0.15 0.17 0.13 0.08 0.06 0.09 0.07 0.06 0.07 0.03 0.04 0.04 0.04 0.04
0.00 0.00 0.00 0.00 0.00 0.00 0.00 0.00 0.00 0.00 0.02 0.03 0.03 0.06 0.08 0.10 0.08 0.16 0.50 0.50 0.67 0.70 0.54 0.45 0.53 0.50 0.48 0.23 0.18 0.15 0.13 0.12 0.17 0.12 0.04 0.02 0.02 0.02 0.02 0.03 0.03 0.03 0.04
0.00 0.00 0.00 0.00 0.00 0.00 0.00 0.00 0.00 0.00 0.02 0.05 0.06 0.05 0.02 0.07 0.15 0.14 0.34 0.57 0.60 0.59 0.43 0.45 0.41 0.55 0.49 0.39 0.27 0.19 0.16 0.14 0.09 0.12 0.06 0.01 0.01 0.01 0.01 0.02 0.02 0.02 0.02
0.00 0.00 0.00 0.00 0.00 0.00 0.00 0.00 0.00 0.00 0.02 0.06 0.09 0.08 0.11 0.15 0.16 0.21 0.28 0.49 0.76 0.83 0.46 0.43 0.54 0.59 0.55 0.50 0.36 0.32 0.31 0.25 0.13 0.04 0.04 0.02 0.01 0.01 0.01 0.01 0.02 0.02 0.01
0.00 0.00 0.00 0.00 0.00 0.00 0.00 0.00 0.00 0.00 0.01 0.05 0.10 0.12 0.15 0.19 0.22 0.17 0.28 0.32 0.57 0.61 0.47 0.30 0.45 0.62 0.64 0.52 0.46 0.48 0.37 0.28 0.20 0.09 0.02 0.01 0.01 0.00 0.01 0.01 0.01 0.01 0.01
0.00 0.00 0.00 0.00 0.00 0.00 0.00 0.00 0.00 0.00 0.01 0.02 0.06 0.14 0.15 0.31 0.36 0.21 0.28 0.29 0.39 0.47 0.49 0.36 0.33 0.46 0.48 0.45 0.38 0.40 0.43 0.38 0.31 0.18 0.05 0.02 0.01 0.00 0.01 0.01 0.00 0.00 0.00
0.00 0.00 0.00 0.00 0.00 0.00 0.00 0.00 0.00 0.01 0.01 0.02 0.03 0.07 0.17 0.29 0.42 0.45 0.37 0.31 0.22 0.19 0.27 0.38 0.36 0.26 0.23 0.31 0.28 0.24 0.27 0.21 0.15 0.19 0.07 0.02 0.01 0.00 0.00 0.01 0.00 0.00 0.00
0.00 0.00 0.00 0.00 0.00 0.00 0.00 0.00 0.00 0.00 0.00 0.01 0.01 0.02 0.07 0.30 0.52 0.36 0.53 0.52 0.43 0.23 0.22 0.29 0.39 0.35 0.26 0.28 0.24 0.15 0.07 0.07 0.10 0.15 0.08 0.04 0.02 0.00 0.00 0.00 0.00 0.00 0.00
0.00 0.00 0.00 0.00 0.00 0.00 0.00 0.00 0.00 0.00 0.00 0.01 0.01 0.02 0.08 0.21 0.49 0.61 0.29 0.45 0.43 0.22 0.14 0.18 0.30 0.39 0.32 0.28 0.23 0.21 0.14 0.10 0.12 0.16 0.17 0.10 0.07 0.02 0.00 0.00 0.00 0.00 0.00
0.00 0.00 0.00 0.00 0.00 0.01 0.01 0.00 0.00 0.00 0.00 0.00 0.00 0.00 0.02 0.11 0.29 0.46 0.60 0.44 0.39 0.30 0.11 0.06 0.12 0.17 0.24 0.28 0.26 0.27 0.18 0.13 0.10 0.08 0.07 0.08 0.07 0.03 0.01 0.00 0.00 0.00 0.00

GFSSE_prec_precacc24_120.txt.gz
Total_Precipitation_Accumulation
0.00 0.00 0.00 0.00 0.00 0.00 0.00 0.00 0.00 0.00 0.00 0.00 0.00 0.00 0.00 0.00 0.00 0.00 0.01 0.01 0.00 0.01 0.01 0.01 0.00 0.03 0.05 0.08 0.13 0.20 0.14 0.16 0.20 0.14 0.13 0.09 0.03 0.02 0.03 0.08 0.08 0.02 0.07
0.00 0.00 0.00 0.00 0.00 0.00 0.00 0.00 0.00 0.00 0.00 0.00 0.00 0.00 0.00 0.00 0.00 0.00 0.02 0.07 0.03 0.01 0.02 0.01 0.01 0.02 0.06 0.05 0.07 0.08 0.05 0.04 0.04 0.06 0.10 0.11 0.05 0.03 0.03 0.09 0.03 0.03 0.05
0.00 0.00 0.00 0.00 0.00 0.00 0.00 0.00 0.00 0.00 0.00 0.00 0.00 0.00 0.00 0.00 0.00 0.00 0.00 0.02 0.05 0.03 0.02 0.01 0.01 0.02 0.04 0.05 0.09 0.10 0.01 0.01 0.02 0.05 0.11 0.06 0.07 0.14 0.05 0.04 0.02 0.04 0.03
0.00 0.00 0.00 0.00 0.00 0.00 0.00 0.00 0.00 0.00 0.00 0.00 0.00 0.00 0.00 0.00 0.00 0.00 0.00 0.04 0.05 0.04 0.03 0.02 0.04 0.07 0.09 0.09 0.10 0.07 0.01 0.00 0.00 0.02 0.06 0.09 0.08 0.22 0.09 0.03 0.05 0.05 0.05
0.00 0.00 0.00 0.00 0.00 0.00 0.00 0.00 0.00 0.00 0.00 0.00 0.00 0.00 0.00 0.00 0.00 0.03 0.06 0.08 0.09 0.13 0.12 0.06 0.13 0.15 0.06 0.03 0.08 0.10 0.01 0.02 0.04 0.03 0.02 0.04 0.08 0.19 0.14 0.11 0.10 0.11 0.14
0.00 0.00 0.00 0.00 0.00 0.00 0.00 0.00 0.00 0.00 0.00 0.00 0.00 0.01 0.01 0.01 0.03 0.14 0.15 0.17 0.22 0.29 0.34 0.38 0.42 0.35 0.03 0.00 0.00 0.01 0.01 0.04 0.16 0.16 0.19 0.09 0.21 0.18 0.13 0.09 0.11 0.09 0.11
0.00 0.00 0.00 0.00 0.00 0.00 0.00 0.00 0.00 0.00 0.00 0.02 0.05 0.09 0.02 0.03 0.14 0.17 0.17 0.23 0.46 0.50 0.38 0.40 0.24 0.18 0.02 0.00 0.00 0.03 0.04 0.06 0.18 0.21 0.26 0.19 0.22 0.07 0.05 0.03 0.06 0.07 0.06
0.00 0.00 0.00 0.00 0.00 0.00 0.00 0.00 0.01 0.02 0.00 0.04 0.04 0.07 0.05 0.09 0.24 0.12 0.07 0.19 0.43 0.39 0.39 0.28 0.12 0.08 0.05 0.02 0.01 0.07 0.04 0.04 0.13 0.49 0.83 0.35 0.28 0.06 0.05 0.02 0.04 0.03 0.01
0.00 0.00 0.00 0.00 0.00 0.00 0.00 0.01 0.02 0.03 0.01 0.03 0.03 0.14 0.29 0.52 0.42 0.25 0.13 0.54 0.57 0.40 0.61 0.47 0.32 0.54 0.21 0.22 0.18 0.15 0.09 0.07 0.14 0.27 0.69 0.20 0.21 0.09 0.04 0.01 0.03 0.02 0.01
0.00 0.00 0.00 0.00 0.00 0.00 0.01 0.01 0.02 0.04 0.04 0.04 0.03 0.06 0.17 0.31 0.23 0.29 0.31 0.43 0.94 0.55 0.47 0.44 0.59 0.48 0.57 0.38 0.18 0.16 0.13 0.10 0.08 0.46 0.46 0.20 0.21 0.13 0.08 0.04 0.01 0.01 0.01
0.00 0.00 0.00 0.00 0.00 0.00 0.00 0.01 0.02 0.05 0.05 0.04 0.02 0.02 0.16 0.23 0.16 0.14 0.23 0.33 0.44 0.48 0.46 0.48 0.44 0.56 0.56 0.62 0.58 0.51 0.35 0.03 0.15 0.22 0.32 0.18 0.26 0.11 0.08 0.05 0.02 0.01 0.01
0.00 0.00 0.00 0.00 0.00 0.00 0.00 0.01 0.02 0.04 0.04 0.05 0.03 0.02 0.05 0.06 0.09 0.07 0.11 0.25 0.44 0.51 0.48 0.46 0.40 0.44 0.47 0.41 0.53 0.50 0.24 0.16 0.28 0.51 0.25 0.14 0.21 0.05 0.06 0.04 0.03 0.01 0.01
0.00 0.00 0.00 0.00 0.00 0.00 0.00 0.00 0.01 0.02 0.04 0.04 0.04 0.04 0.05 0.10 0.12 0.16 0.33 0.61 0.61 0.53 0.48 0.46 0.24 0.19 0.15 0.20 0.31 0.35 0.39 0.28 0.44 0.46 0.36 0.14 0.20 0.08 0.04 0.03 0.03 0.02 0.02
0.00 0.00 0.00 0.00 0.00 0.00 0.00 0.00 0.00 0.01 0.03 0.02 0.03 0.04 0.07 0.11 0.11 0.15 0.27 0.74 0.52 0.40 0.29 0.29 0.15 0.09 0.06 0.13 0.19 0.20 0.37 0.63 0.66 0.91 0.35 0.21 0.25 0.19 0.06 0.03 0.03 0.04 0.03
0.00 0.00 0.00 0.00 0.00 0.00 0.00 0.00 0.00 0.01 0.02 0.02 0.02 0.03 0.06 0.06 0.12 0.24 0.37 0.97 0.64 0.45 0.28 0.27 0.19 0.13 0.07 0.07 0.11 0.12 0.13 0.20 0.61 0.65 0.47 0.24 0.27 0.22 0.13 0.07 0.06 0.04 0.03
0.00 0.00 0.00 0.00 0.00 0.00 0.00 0.00 0.00 0.00 0.01 0.03 0.02 0.01 0.06 0.09 0.18 0.27 0.39 0.79 0.92 0.92 0.38 0.28 0.25 0.15 0.12 0.09 0.16 0.15 0.15 0.08 0.09 0.18 0.30 0.16 0.28 0.33 0.28 0.13 0.08 0.04 0.04
0.00 0.00 0.00 0.00 0.00 0.00 0.00 0.00 0.00 0.00 0.01 0.01 0.01 0.01 0.02 0.07 0.09 0.22 0.42 0.68 0.68 1.13 0.66 0.42 0.44 0.44 0.31 0.16 0.16 0.15 0.17 0.17 0.09 0.06 0.09 0.07 0.07 0.18 0.28 0.23 0.09 0.06 0.04
0.00 0.00 0.00 0.00 0.00 0.00 0.00 0.00 0.00 0.00 0.01 0.01 0.01 0.02 0.01 0.04 0.06 0.12 0.48 0.48 0.67 0.70 0.54 0.45 0.53 0.50 0.48 0.23 0.19 0.15 0.16 0.16 0.19 0.14 0.04 0.03 0.03 0.05 0.09 0.09 0.06 0.04 0.04
0.00 0.00 0.00 0.00 0.00 0.00 0.00 0.00 0.00 0.00 0.01 0.02 0.02 0.02 0.01 0.03 0.08 0.11 0.33 0.56 0.60 0.59 0.43 0.45 0.41 0.55 0.49 0.39 0.27 0.19 0.18 0.15 0.10 0.13 0.07 0.04 0.02 0.02 0.01 0.03 0.03 0.03 0.03
0.00 0.00 0.00 0.00 0.00 0.00 0.00 0.00 0.00 0.00 0.01 0.04 0.05 0.03 0.03 0.05 0.04 0.15 0.26 0.49 0.76 0.83 0.46 0.43 0.54 0.59 0.55 0.50 0.36 0.33 0.31 0.26 0.15 0.05 0.05 0.04 0.02 0.02 0.02 0.01 0.02 0.02 0.02
0.00 0.00 0.00 0.00 0.00 0.00 0.00 0.00 0.00 0.01 0.01 0.05 0.07 0.08 0.08 0.13 0.07 0.12 0.25 0.32 0.58 0.62 0.47 0.30 0.45 0.62 0.64 0.53 0.47 0.49 0.38 0.29 0.21 0.09 0.03 0.03 0.02 0.01 0.01 0.01 0.01 0.01 0.02
0.00 0.00 0.00 0.00 0.00 0.00 0.00 0.01 0.04 0.08 0.03 0.02 0.06 0.13 0.13 0.25 0.27 0.13 0.21 0.26 0.40 0.47 0.49 0.36 0.33 0.46 0.49 0.46 0.39 0.40 0.45 0.44 0.35 0.19 0.06 0.03 0.02 0.02 0.01 0.01 0.00 0.00 0.01
0.00 0.00 0.00 0.00 0.00 0.00 0.01 0.04 0.06 0.08 0.03 0.02 0.04 0.06 0.15 0.25 0.36 0.39 0.29 0.28 0.22 0.20 0.28 0.38 0.37 0.26 0.24 0.31 0.29 0.24 0.28 0.22 0.17 0.24 0.20 0.04 0.02 0.01 0.00 0.01 0.00 0.00 0.00
0.00 0.00 0.00 0.00 0.01 0.02 0.03 0.03 0.03 0.00 0.01 0.00 0.01 0.02 0.04 0.21 0.41 0.29 0.44 0.49 0.43 0.23 0.23 0.30 0.40 0.35 0.26 0.28 0.25 0.16 0.07 0.08 0.10 0.17 0.20 0.24 0.08 0.01 0.00 0.00 0.00 0.00 0.00
0.00 0.00 0.00 0.00 0.00 0.00 0.00 0.00 0.00 0.01 0.01 0.00 0.00 0.01 0.03 0.07 0.29 0.47 0.22 0.42 0.42 0.22 0.14 0.18 0.31 0.40 0.32 0.29 0.24 0.22 0.14 0.10 0.12 0.18 0.22 0.23 0.25 0.06 0.02 0.01 0.00 0.00 0.00
0.00 0.00 0.00 0.00 0.00 0.01 0.00 0.00 0.00 0.00 0.00 0.00 0.00 0.00 0.02 0.05 0.11 0.23 0.47 0.38 0.38 0.28 0.10 0.07 0.12 0.17 0.25 0.28 0.27 0.27 0.19 0.13 0.09 0.10 0.16 0.20 0.16 0.10 0.06 0.04 0.01 0.00 0.00

GFSSE_prec_precacc24_123.txt.gz
Total_Precipitation_Accumulation
0.00 0.00 0.00 0.00 0.00 0.00 0.00 0.00 0.00 0.00 0.00 0.00 0.00 0.00 0.00 0.00 0.00 0.00 0.00 0.01 0.00 0.01 0.01 0.01 0.00 0.03 0.05 0.08 0.14 0.20 0.15 0.19 0.27 0.24 0.15 0.16 0.06 0.02 0.03 0.09 0.08 0.02 0.10
0.00 0.00 0.00 0.00 0.00 0.00 0.00 0.00 0.00 0.00 0.00 0.00 0.00 0.00 0.00 0.00 0.00 0.00 0.01 0.04 0.02 0.01 0.02 0.01 0.01 0.01 0.03 0.04 0.07 0.08 0.05 0.04 0.04 0.14 0.13 0.15 0.06 0.03 0.02 0.09 0.03 0.03 0.06
0.00 0.00 0.00 0.00 0.00 0.00 0.00 0.00 0.00 0.00 0.00 0.00 0.00 0.00 0.00 0.00 0.00 0.00 0.00 0.01 0.05 0.02 0.02 0.01 0.01 0.01 0.02 0.04 0.09 0.10 0.01 0.01 0.02 0.07 0.16 0.15 0.08 0.14 0.04 0.04 0.02 0.04 0.03
0.00 0.00 0.00 0.00 0.00 0.00 0.00 0.00 0.00 0.00 0.00 0.00 0.00 0.00 0.00 0.00 0.00 0.00 0.00 0.04 0.05 0.03 0.03 0.02 0.03 0.05 0.07 0.09 0.10 0.07 0.01 0.00 0.00 0.03 0.07 0.13 0.09 0.24 0.10 0.04 0.05 0.06 0.06
0.00 0.00 0.00 0.00 0.00 0.00 0.00 0.00 0.00 0.00 0.00 0.00 0.00 0.00 0.00 0.00 0.00 0.02 0.06 0.08 0.08 0.13 0.11 0.05 0.11 0.13 0.05 0.03 0.08 0.10 0.01 0.02 0.04 0.03 0.05 0.13 0.10 0.20 0.16 0.14 0.12 0.13 0.16
0.00 0.00 0.00 0.00 0.00 0.00 0.00 0.00 0.00 0.00 0.00 0.00 0.00 0.00 0.00 0.01 0.03 0.13 0.13 0.14 0.20 0.28 0.34 0.36 0.39 0.33 0.02 0.00 0.00 0.02 0.01 0.04 0.16 0.16 0.19 0.13 0.32 0.19 0.15 0.10 0.11 0.11 0.15
0.00 0.00 0.00 0.00 0.00 0.00 0.00 0.00 0.00 0.00 0.00 0.00 0.00 0.00 0.00 0.03 0.14 0.17 0.16 0.15 0.34 0.44 0.36 0.36 0.22 0.15 0.01 0.00 0.01 0.05 0.04 0.06 0.18 0.21 0.28 0.21 0.35 0.09 0.05 0.03 0.06 0.09 0.08
0.00 0.00 0.00 0.00 0.00 0.00 0.00 0.00 0.01 0.00 0.00 0.00 0.01 0.02 0.01 0.08 0.23 0.12 0.06 0.09 0.17 0.24 0.31 0.23 0.09 0.05 0.05 0.02 0.03 0.10 0.06 0.04 0.13 0.49 0.83 0.35 0.41 0.12 0.06 0.03 0.09 0.07 0.02
0.00 0.00 0.00 0.00 0.00 0.00 0.00 0.00 0.00 0.00 0.00 0.02 0.02 0.13 0.28 0.51 0.39 0.24 0.13 0.31 0.32 0.28 0.52 0.43 0.30 0.52 0.21 0.23 0.20 0.17 0.10 0.08 0.14 0.27 0.69 0.19 0.24 0.13 0.09 0.04 0.05 0.04 0.01
0.00 0.00 0.00 0.00 0.00 0.00 0.01 0.01 0.01 0.01 0.02 0.02 0.02 0.06 0.17 0.30 0.22 0.28 0.31 0.31 0.35 0.35 0.36 0.42 0.58 0.47 0.57 0.38 0.18 0.16 0.13 0.10 0.08 0.46 0.46 0.20 0.21 0.14 0.11 0.04 0.01 0.00 0.01
0.00 0.00 0.00 0.00 0.00 0.00 0.00 0.01 0.02 0.02 0.03 0.02 0.01 0.02 0.15 0.23 0.16 0.14 0.22 0.20 0.21 0.32 0.39 0.47 0.43 0.56 0.56 0.63 0.64 0.61 0.39 0.03 0.15 0.22 0.32 0.19 0.30 0.13 0.09 0.05 0.02 0.01 0.01
0.00 0.00 0.00 0.00 0.00 0.00 0.00 0.01 0.02 0.03 0.03 0.03 0.02 0.02 0.04 0.06 0.09 0.06 0.05 0.03 0.17 0.32 0.43 0.45 0.39 0.44 0.47 0.44 0.58 0.51 0.24 0.16 0.28 0.51 0.25 0.14 0.23 0.10 0.10 0.04 0.03 0.01 0.01
0.00 0.00 0.00 0.00 0.00 0.00 0.00 0.00 0.01 0.02 0.03 0.03 0.04 0.04 0.05 0.10 0.12 0.13 0.15 0.12 0.26 0.30 0.44 0.44 0.21 0.19 0.15 0.21 0.31 0.35 0.39 0.28 0.44 0.46 0.36 0.13 0.21 0.15 0.12 0.03 0.03 0.02 0.02
0.00 0.00 0.00 0.00 0.00 0.00 0.00 0.00 0.00 0.01 0.03 0.02 0.03 0.04 0.07 0.10 0.09 0.08 0.08 0.11 0.21 0.25 0.27 0.28 0.14 0.09 0.06 0.14 0.19 0.20 0.37 0.63 0.66 0.91 0.35 0.22 0.29 0.40 0.15 0.06 0.03 0.04 0.03
0.00 0.00 0.00 0.00 0.00 0.00 0.00 0.00 0.00 0.01 0.01 0.01 0.01 0.03 0.05 0.04 0.05 0.07 0.08 0.27 0.35 0.35 0.28 0.27 0.18 0.13 0.07 0.07 0.11 0.12 0.13 0.20 0.61 0.65 0.48 0.24 0.27 0.34 0.23 0.11 0.07 0.05 0.04
0.00 0.00 0.00 0.00 0.00 0.00 0.00 0.00 0.00 0.00 0.01 0.01 0.01 0.01 0.03 0.05 0.12 0.17 0.20 0.28 0.69 0.81 0.38 0.28 0.25 0.15 0.12 0.09 0.16 0.15 0.15 0.08 0.09 0.18 0.30 0.16 0.29 0.37 0.49 0.24 0.15 0.09 0.05
0.00 0.00 0.00 0.00 0.00 0.00 0.00 0.00 0.00 0.00 0.00 0.00 0.01 0.01 0.01 0.02 0.04 0.15 0.27 0.46 0.42 1.02 0.66 0.41 0.44 0.44 0.31 0.16 0.16 0.15 0.17 0.17 0.09 0.06 0.09 0.07 0.10 0.25 0.42 0.48 0.28 0.14 0.08
0.00 0.00 0.00 0.00 0.00 0.00 0.00 0.00 0.00 0.00 0.00 0.00 0.00 0.01 0.00 0.01 0.02 0.07 0.18 0.32 0.48 0.62 0.53 0.45 0.53 0.50 0.48 0.23 0.19 0.15 0.16 0.17 0.20 0.14 0.04 0.03 0.03 0.06 0.17 0.46 0.45 0.27 0.13
0.00 0.00 0.00 0.00 0.00 0.00 0.00 0.00 0.00 0.00 0.01 0.01 0.01 0.01 0.01 0.01 0.02 0.05 0.16 0.36 0.49 0.56 0.43 0.45 0.41 0.55 0.49 0.39 0.27 0.19 0.18 0.16 0.11 0.13 0.07 0.04 0.03 0.03 0.04 0.17 0.27 0.14 0.10
0.00 0.00 0.00 0.00 0.00 0.00 0.00 0.00 0.00 0.00 0.01 0.02 0.02 0.01 0.02 0.04 0.03 0.05 0.13 0.37 0.72 0.82 0.46 0.43 0.54 0.59 0.55 0.50 0.37 0.33 0.32 0.27 0.15 0.06 0.05 0.04 0.04 0.04 0.04 0.04 0.07 0.05 0.04
0.00 0.00 0.00 0.00 0.00 0.00 0.00 0.00 0.00 0.01 0.01 0.04 0.03 0.03 0.03 0.05 0.06 0.09 0.15 0.25 0.56 0.61 0.47 0.30 0.45 0.62 0.65 0.53 0.49 0.51 0.39 0.30 0.22 0.10 0.04 0.04 0.03 0.03 0.04 0.02 0.01 0.01 0.02
0.00 0.00 0.00 0.00 0.00 0.00 0.00 0.01 0.04 0.08 0.04 0.02 0.04 0.05 0.05 0.07 0.08 0.10 0.16 0.22 0.40 0.48 0.50 0.37 0.33 0.47 0.50 0.46 0.40 0.42 0.47 0.46 0.36 0.19 0.07 0.04 0.03 0.04 0.04 0.02 0.01 0.00 0.01
0.00 0.00 0.00 0.00 0.00 0.00 0.01 0.04 0.07 0.25 0.19 0.06 0.05 0.04 0.11 0.15 0.19 0.28 0.23 0.25 0.22 0.21 0.29 0.39 0.38 0.28 0.25 0.32 0.29 0.25 0.29 0.22 0.17 0.24 0.20 0.05 0.03 0.03 0.06 0.08 0.02 0.00 0.00
0.00 0.00 0.00 0.01 0.03 0.05 0.08 0.10 0.12 0.11 0.05 0.01 0.01 0.03 0.07 0.14 0.26 0.21 0.36 0.41 0.42 0.24 0.24 0.31 0.44 0.37 0.27 0.29 0.26 0.17 0.07 0.08 0.11 0.18 0.21 0.24 0.10 0.07 0.05 0.06 0.02 0.00 0.00
0.00 0.00 0.00 0.00 0.01 0.03 0.07 0.09 0.13 0.14 0.18 0.08 0.01 0.02 0.03 0.06 0.20 0.34 0.14 0.23 0.33 0.20 0.15 0.19 0.33 0.42 0.34 0.29 0.25 0.23 0.15 0.10 0.13 0.18 0.23 0.24 0.35 0.22 0.14 0.08 0.02 0.00 0.00
0.00 0.00 0.00 0.00 0.00 0.01 0.02 0.03 0.03 0.04 0.07 0.08 0.05 0.01 0.03 0.05 0.08 0.17 0.36 0.20 0.18 0.17 0.08 0.07 0.14 0.19 0.26 0.29 0.27 0.28 0.19 0.13 0.10 0.12 0.17 0.21 0.23 0.21 0.19 0.16 0.04 0.00 0.00

GFSSE_prec_precacc24_126.txt.gz
Total_Precipitation_Accumulation
0.00 0.00 0.00 0.00 0.00 0.00 0.00 0.00 0.00 0.00 0.00 0.00 0.00 0.00 0.00 0.00 0.00 0.00 0.00 0.01 0.00 0.01 0.01 0.01 0.00 0.03 0.05 0.08 0.14 0.19 0.13 0.19 0.29 0.33 0.15 0.17 0.09 0.06 0.05 0.09 0.09 0.03 0.12
0.00 0.00 0.00 0.00 0.00 0.00 0.00 0.00 0.00 0.00 0.00 0.00 0.00 0.00 0.00 0.00 0.00 0.00 0.00 0.00 0.01 0.01 0.02 0.01 0.01 0.02 0.04 0.04 0.06 0.07 0.05 0.04 0.05 0.22 0.23 0.33 0.16 0.07 0.07 0.09 0.04 0.06 0.08
0.00 0.00 0.00 0.00 0.00 0.00 0.00 0.00 0.00 0.00 0.00 0.00 0.00 0.00 0.00 0.00 0.00 0.00 0.00 0.01 0.02 0.02 0.01 0.01 0.01 0.01 0.01 0.03 0.08 0.10 0.01 0.01 0.03 0.12 0.27 0.44 0.21 0.17 0.06 0.05 0.04 0.07 0.06
0.00 0.00 0.00 0.00 0.00 0.00 0.00 0.00 0.00 0.00 0.00 0.00 0.00 0.00 0.00 0.00 0.00 0.00 0.00 0.02 0.04 0.03 0.02 0.01 0.03 0.04 0.05 0.05 0.07 0.07 0.01 0.00 0.00 0.03 0.08 0.17 0.11 0.25 0.09 0.04 0.06 0.08 0.09
0.00 0.00 0.00 0.00 0.00 0.00 0.00 0.00 0.00 0.00 0.00 0.00 0.00 0.00 0.00 0.00 0.00 0.02 0.03 0.04 0.07 0.12 0.09 0.04 0.09 0.10 0.03 0.03 0.08 0.10 0.01 0.02 0.04 0.03 0.05 0.14 0.11 0.22 0.17 0.15 0.15 0.19 0.27
0.00 0.00 0.00 0.00 0.00 0.00 0.00 0.00 0.00 0.00 0.00 0.00 0.00 0.00 0.00 0.01 0.02 0.09 0.06 0.07 0.13 0.26 0.31 0.34 0.36 0.30 0.02 0.00 0.00 0.02 0.01 0.04 0.16 0.16 0.19 0.14 0.36 0.21 0.17 0.11 0.12 0.14 0.21
0.00 0.00 0.00 0.00 0.00 0.00 0.00 0.00 0.00 0.00 0.00 0.00 0.00 0.00 0.00 0.03 0.13 0.14 0.13 0.10 0.27 0.37 0.31 0.34 0.21 0.14 0.00 0.00 0.01 0.05 0.04 0.06 0.18 0.21 0.28 0.21 0.44 0.16 0.06 0.03 0.06 0.10 0.12
0.00 0.00 0.00 0.00 0.00 0.00 0.00 0.00 0.00 0.00 0.00 0.00 0.00 0.02 0.01 0.08 0.23 0.12 0.05 0.08 0.13 0.16 0.26 0.19 0.06 0.04 0.04 0.02 0.03 0.10 0.06 0.04 0.13 0.49 0.83 0.35 0.48 0.28 0.07 0.03 0.09 0.09 0.03
0.00 0.00 0.00 0.00 0.00 0.00 0.00 0.00 0.00 0.00 0.00 0.00 0.00 0.12 0.25 0.50 0.38 0.22 0.10 0.27 0.28 0.27 0.49 0.37 0.26 0.51 0.21 0.23 0.20 0.17 0.10 0.08 0.14 0.27 0.69 0.19 0.26 0.17 0.10 0.04 0.05 0.04 0.01
0.00 0.00 0.00 0.00 0.00 0.00 0.00 0.00 0.00 0.00 0.00 0.00 0.00 0.05 0.15 0.28 0.21 0.26 0.29 0.22 0.21 0.24 0.28 0.29 0.51 0.46 0.57 0.38 0.18 0.16 0.13 0.10 0.08 0.46 0.46 0.20 0.26 0.18 0.16 0.05 0.01 0.00 0.00
0.00 0.00 0.00 0.00 0.00 0.00 0.00 0.01 0.01 0.01 0.01 0.00 0.00 0.01 0.15 0.23 0.16 0.14 0.22 0.19 0.14 0.21 0.27 0.34 0.35 0.53 0.56 0.63 0.64 0.61 0.39 0.03 0.15 0.22 0.32 0.19 0.35 0.17 0.14 0.06 0.02 0.00 0.00
0.00 0.00 0.00 0.00 0.00 0.00 0.00 0.01 0.02 0.02 0.02 0.02 0.01 0.01 0.04 0.05 0.08 0.05 0.04 0.02 0.08 0.15 0.31 0.39 0.37 0.44 0.47 0.44 0.58 0.51 0.24 0.16 0.28 0.51 0.25 0.14 0.25 0.14 0.21 0.10 0.03 0.01 0.01
0.00 0.00 0.00 0.00 0.00 0.00 0.00 0.00 0.01 0.02 0.03 0.02 0.03 0.03 0.04 0.09 0.11 0.12 0.15 0.10 0.15 0.13 0.18 0.31 0.20 0.19 0.15 0.22 0.32 0.35 0.39 0.28 0.44 0.46 0.36 0.13 0.23 0.20 0.25 0.09 0.03 0.02 0.01
0.00 0.00 0.00 0.00 0.00 0.00 0.00 0.00 0.00 0.01 0.03 0.02 0.02 0.03 0.06 0.09 0.08 0.08 0.08 0.09 0.07 0.09 0.17 0.22 0.13 0.09 0.06 0.14 0.20 0.20 0.37 0.63 0.66 0.91 0.35 0.21 0.34 0.56 0.22 0.10 0.04 0.03 0.03
0.00 0.00 0.00 0.00 0.00 0.00 0.00 0.00 0.00 0.01 0.01 0.01 0.01 0.03 0.05 0.04 0.05 0.06 0.06 0.06 0.04 0.07 0.21 0.26 0.16 0.12 0.07 0.07 0.11 0.12 0.13 0.20 0.61 0.65 0.48 0.24 0.31 0.45 0.38 0.17 0.12 0.07 0.04
0.00 0.00 0.00 0.00 0.00 0.00 0.00 0.00 0.00 0.00 0.00 0.01 0.01 0.01 0.03 0.05 0.10 0.12 0.10 0.06 0.16 0.33 0.24 0.26 0.23 0.15 0.12 0.09 0.16 0.15 0.15 0.08 0.09 0.18 0.30 0.17 0.37 0.51 0.68 0.48 0.27 0.16 0.09
0.00 0.00 0.00 0.00 0.00 0.00 0.00 0.00 0.00 0.00 0.00 0.00 0.00 0.01 0.01 0.02 0.04 0.08 0.12 0.13 0.15 0.66 0.57 0.39 0.42 0.43 0.31 0.16 0.16 0.15 0.17 0.17 0.09 0.06 0.09 0.07 0.16 0.34 0.53 0.68 0.55 0.29 0.18
0.00 0.00 0.00 0.00 0.00 0.00 0.00 0.00 0.00 0.00 0.00 0.00 0.00 0.00 0.00 0.01 0.01 0.03 0.07 0.12 0.18 0.33 0.42 0.42 0.51 0.49 0.48 0.23 0.19 0.15 0.16 0.17 0.20 0.14 0.04 0.03 0.03 0.07 0.20 0.52 0.63 0.68 0.48
0.00 0.00 0.00 0.00 0.00 0.00 0.00 0.00 0.00 0.00 0.00 0.00 0.00 0.00 0.01 0.01 0.01 0.01 0.04 0.13 0.19 0.24 0.30 0.38 0.39 0.55 0.49 0.39 0.27 0.19 0.18 0.16 0.11 0.13 0.07 0.04 0.03 0.03 0.05 0.23 0.40 0.48 0.79
0.00 0.00 0.00 0.00 0.00 0.00 0.00 0.00 0.00 0.00 0.01 0.01 0.01 0.01 0.01 0.01 0.01 0.02 0.04 0.10 0.30 0.43 0.37 0.36 0.49 0.58 0.55 0.50 0.37 0.33 0.32 0.27 0.16 0.06 0.05 0.04 0.04 0.05 0.05 0.07 0.15 0.17 0.21
0.00 0.00 0.00 0.00 0.00 0.00 0.00 0.00 0.00 0.01 0.01 0.03 0.01 0.01 0.01 0.02 0.02 0.05 0.08 0.09 0.21 0.36 0.41 0.28 0.41 0.61 0.65 0.53 0.49 0.52 0.40 0.30 0.22 0.10 0.04 0.04 0.04 0.04 0.05 0.04 0.07 0.08 0.10
0.00 0.00 0.00 0.00 0.00 0.00 0.00 0.01 0.04 0.08 0.04 0.02 0.03 0.02 0.02 0.02 0.03 0.08 0.11 0.15 0.20 0.33 0.46 0.35 0.32 0.47 0.52 0.48 0.41 0.42 0.48 0.46 0.36 0.20 0.07 0.04 0.04 0.05 0.05 0.04 0.05 0.05 0.03
0.00 0.00 0.00 0.00 0.00 0.00 0.01 0.04 0.07 0.26 0.20 0.06 0.05 0.02 0.09 0.08 0.08 0.08 0.11 0.15 0.15 0.16 0.27 0.39 0.39 0.29 0.26 0.34 0.30 0.25 0.29 0.22 0.17 0.24 0.20 0.05 0.03 0.03 0.07 0.10 0.09 0.08 0.05
0.00 0.00 0.00 0.01 0.03 0.05 0.08 0.10 0.13 0.13 0.07 0.03 0.03 0.08 0.15 0.10 0.11 0.05 0.12 0.20 0.31 0.23 0.23 0.32 0.44 0.38 0.29 0.31 0.28 0.17 0.08 0.08 0.11 0.18 0.21 0.24 0.11 0.07 0.06 0.09 0.12 0.16 0.08
0.00 0.00 0.00 0.00 0.01 0.03 0.07 0.09 0.19 0.22 0.23 0.19 0.25 0.31 0.31 0.24 0.14 0.13 0.08 0.17 0.30 0.21 0.16 0.21 0.35 0.44 0.36 0.31 0.26 0.24 0.16 0.11 0.13 0.19 0.23 0.24 0.35 0.22 0.14 0.11 0.13 0.16 0.06
0.00 0.00 0.00 0.00 0.00 0.01 0.04 0.06 0.09 0.10 0.12 0.13 0.19 0.27 0.31 0.27 0.18 0.15 0.24 0.19 0.15 0.11 0.09 0.10 0.16 0.21 0.28 0.31 0.28 0.29 0.20 0.14 0.10 0.12 0.17 0.22 0.24 0.21 0.20 0.23 0.17 0.17 0.12